Lapse_Rate
6.4 6.3 6.4 6.3 6.3 6.2 6.2 6.4 6.8 7.1 7.1 7.2 7.2 7.2 7.2 7.1 7.1 7.2 7.1 7.0 7.1 7.1 6.9 7.0 7.5 7.5 7.5 7.6 7.4 7.1 6.9 6.8 6.7 6.7 6.7 6.4 6.1 5.8 5.6 5.4 5.4 5.6 5.8
6.7 6.6 6.7 6.5 6.6 6.7 7.1 7.1 7.2 7.4 7.3 7.2 7.2 7.3 7.3 7.4 7.5 7.4 7.5 7.4 7.4 7.3 7.1 7.0 6.5 7.3 7.7 7.5 7.6 7.4 7.2 7.0 6.7 6.7 6.6 6.6 6.5 6.2 5.8 5.4 5.3 5.4 5.6
7.0 7.0 6.9 6.8 6.8 7.1 7.4 7.3 7.2 7.2 7.0 7.1 7.1 7.1 7.0 7.2 7.4 7.3 7.4 7.7 7.5 7.7 7.0 4.9 4.3 6.2 7.0 7.2 7.5 7.4 7.1 7.1 6.9 6.8 6.5 6.4 6.3 6.3 5.9 5.5 5.3 5.2 5.4
7.2 7.0 6.7 6.7 7.0 7.1 7.1 7.1 7.4 7.3 7.1 7.2 7.7 7.4 7.1 7.3 7.6 7.5 7.7 7.6 7.8 8.1 7.3 5.5 5.7 6.2 6.6 7.2 7.6 7.4 7.1 6.9 6.8 7.0 6.7 6.5 6.5 6.2 5.9 5.5 5.2 5.1 5.1
7.5 7.3 7.1 6.8 6.3 6.1 6.3 6.1 6.6 7.2 7.6 7.2 7.3 7.7 7.6 7.2 7.0 7.3 7.5 7.4 7.9 7.7 7.8 7.0 6.9 6.9 7.1 7.4 7.4 7.1 7.0 6.8 6.6 6.4 6.5 6.6 6.6 6.1 5.8 5.6 5.3 5.2 5.0
7.3 6.6 6.5 5.5 4.9 5.0 6.6 6.7 6.8 7.1 7.3 7.6 7.4 7.3 7.3 6.9 6.7 7.0 7.2 7.0 7.1 7.4 7.5 7.2 7.1 7.1 7.1 7.1 6.9 6.8 6.7 6.7 6.5 6.5 6.5 6.4 6.5 6.2 6.0 5.9 5.3 5.1 5.4
6.4 5.1 5.3 5.0 6.8 7.3 7.2 7.5 7.4 7.1 7.3 7.0 7.4 7.3 7.1 6.8 6.7 6.9 6.8 6.7 6.6 6.8 7.1 7.2 7.0 6.8 6.6 6.6 6.5 6.5 6.5 6.4 6.3 6.2 6.2 6.4 6.3 6.4 6.1 6.0 5.4 5.2 5.3
7.1 6.9 6.8 6.8 7.1 7.3 7.2 7.1 7.0 6.9 6.9 6.9 6.4 6.5 6.6 6.6 6.6 6.3 6.4 6.5 6.7 6.9 6.9 6.6 6.5 6.6 6.7 6.7 6.7 6.7 6.6 6.6 6.4 6.3 6.4 6.4 6.5 6.3 6.1 6.0 5.6 5.1 5.3
6.4 6.3 6.2 6.4 6.6 6.7 6.9 6.9 6.7 6.7 6.7 6.7 6.5 6.4 6.3 6.3 6.3 6.1 6.0 6.1 6.4 6.5 6.5 6.6 6.6 6.7 6.8 6.8 6.7 6.6 6.6 6.6 6.5 6.5 6.6 6.5 6.4 6.2 6.0 6.1 5.4 5.0 5.2
6.1 6.1 6.0 5.9 6.0 6.1 6.2 6.3 6.4 6.5 6.5 6.5 6.6 6.7 6.7 6.8 6.7 6.7 6.7 6.6 6.6 6.5 6.6 6.8 6.8 6.8 6.7 6.6 6.6 6.6 6.6 6.5 6.5 6.6 6.4 6.5 6.4 6.3 6.0 5.9 5.7 5.1 5.2
6.4 6.4 6.4 6.4 6.3 6.4 6.6 6.8 6.9 7.0 7.1 7.0 7.1 7.2 7.1 7.0 7.0 7.0 6.9 6.9 6.9 6.9 6.8 6.8 6.8 6.7 6.5 6.3 6.3 6.3 6.3 6.3 6.3 6.4 6.5 6.3 6.3 5.7 5.7 5.9 5.2 5.2 5.1
6.1 6.0 6.3 6.4 6.6 6.7 6.7 6.8 6.9 7.0 7.0 7.0 7.1 7.2 7.1 7.0 7.0 6.9 6.8 6.7 6.6 6.6 6.6 6.6 6.5 6.5 6.3 6.1 5.9 5.9 6.0 5.9 5.9 5.9 6.2 6.4 6.0 5.8 5.8 5.8 5.1 5.4 5.4
5.9 5.9 5.9 6.1 6.3 6.5 6.7 6.8 6.8 6.8 6.9 7.1 7.0 7.1 7.0 6.9 6.8 6.7 6.7 6.6 6.5 6.5 6.5 6.5 6.3 6.1 6.0 6.1 5.9 5.7 5.5 5.3 5.1 5.1 5.5 5.7 5.6 5.4 5.6 5.6 5.3 5.4 4.9
5.9 6.1 6.3 6.5 6.7 6.7 6.8 6.8 6.9 7.0 7.0 6.9 6.8 6.8 6.8 6.9 6.8 6.8 6.8 6.8 6.8 6.7 6.7 6.7 6.4 6.1 6.1 6.1 6.2 6.0 5.7 5.4 5.1 5.0 5.1 5.3 5.5 5.5 5.6 5.6 5.5 5.3 5.3
6.1 6.3 6.5 6.6 6.7 6.7 6.8 6.8 6.9 6.8 6.8 6.8 6.8 6.8 6.8 7.0 7.0 7.0 7.0 6.9 6.9 6.9 6.9 6.7 6.7 6.5 6.4 6.1 5.9 5.8 5.6 5.5 5.2 5.3 5.2 5.0 5.5 5.5 5.5 5.6 5.4 5.6 5.3
6.6 6.6 6.7 6.8 6.9 6.9 6.9 6.9 6.7 6.6 6.6 6.4 6.4 6.6 6.7 6.6 6.8 6.8 6.8 6.7 6.6 6.7 6.7 6.7 6.6 6.4 6.2 5.9 5.8 5.9 5.9 5.9 5.9 5.6 5.6 5.5 5.4 5.9 5.8 5.5 5.7 5.5 5.9
6.6 6.7 6.7 6.8 6.7 6.6 6.6 6.5 6.6 6.6 6.2 6.2 6.4 6.4 6.3 6.4 6.4 6.4 6.2 6.3 6.3 6.3 6.4 6.4 6.4 6.5 6.3 6.0 5.7 5.6 5.8 6.0 5.9 6.0 6.0 5.8 5.6 6.0 6.3 6.0 5.8 5.8 6.0
6.6 6.6 6.6 6.6 6.5 6.4 6.3 6.3 6.4 6.5 6.8 6.8 6.1 6.0 6.1 6.1 6.0 5.8 5.9 5.8 5.9 6.0 6.1 6.2 6.3 6.3 6.2 6.2 6.1 5.9 5.8 5.8 6.0 6.1 6.1 5.9 5.8 6.1 6.5 6.4 6.3 6.0 5.9
6.5 6.5 6.5 6.5 6.4 6.3 6.2 6.2 6.1 6.1 6.1 6.2 6.4 6.4 6.0 6.0 5.7 5.5 5.5 5.6 5.6 5.7 5.6 5.7 5.9 6.0 5.9 6.1 6.2 6.1 5.8 5.6 5.5 5.7 5.9 5.8 5.9 5.9 6.2 6.1 6.3 6.3 6.0
6.8 6.8 6.8 6.8 6.7 6.6 6.4 6.3 6.3 6.1 6.1 6.2 6.1 6.1 6.3 6.0 5.9 5.7 5.4 5.4 5.3 5.4 5.5 5.5 5.5 5.4 5.6 5.8 5.9 6.1 5.9 5.8 5.5 5.5 5.8 5.8 5.7 5.4 5.5 5.8 5.9 6.2 6.1
6.8 6.8 6.8 6.6 6.4 6.4 6.4 6.4 6.3 6.1 5.9 5.6 5.1 5.6 5.4 5.7 6.0 5.9 5.7 5.6 5.5 5.5 5.5 5.5 5.6 5.7 6.0 6.0 5.9 5.9 6.1 6.0 6.0 5.7 5.7 5.5 5.5 5.5 5.6 5.6 5.8 6.2 6.4
6.1 6.0 6.1 6.1 5.8 5.6 5.7 5.7 5.7 5.3 4.9 4.8 4.9 4.9 5.0 5.1 5.2 5.4 5.6 5.5 5.5 5.4 5.4 5.6 5.7 5.9 6.2 6.3 6.1 6.0 6.1 6.2 6.1 5.9 5.7 5.5 5.7 6.0 5.9 5.7 5.8 6.2 6.3
5.7 5.7 5.7 5.5 5.2 5.2 5.1 4.9 4.8 4.9 4.8 4.9 5.0 5.3 5.3 5.3 5.5 5.5 5.5 5.6 5.5 5.5 5.6 5.6 5.6 5.8 6.1 5.9 6.0 5.9 6.0 6.0 5.9 5.7 5.6 5.7 5.7 6.0 6.3 6.3 6.4 6.3 6.1
5.1 5.3 5.2 5.0 5.0 4.9 4.8 4.7 4.4 4.5 4.4 4.7 4.9 4.8 5.4 5.4 5.3 5.4 5.1 5.3 5.3 5.5 5.6 5.7 5.6 5.5 5.6 5.4 5.7 5.5 5.4 5.8 6.0 6.0 5.7 5.9 6.1 6.2 6.1 6.4 6.5 6.2 6.1
5.0 5.0 5.1 5.0 5.0 5.1 5.2 4.7 4.9 5.1 5.2 5.0 5.0 5.1 5.2 4.4 4.4 4.3 4.6 4.7 4.9 5.2 5.2 5.2 5.3 5.2 5.1 5.0 5.0 5.6 5.6 5.5 5.8 5.8 5.8 5.8 6.1 6.2 6.4 6.5 6.3 6.1 6.1
5.1 5.1 5.2 5.1 5.2 5.0 4.9 4.8 4.8 4.7 4.7 4.8 4.8 4.6 4.5 4.8 4.5 4.3 4.3 4.4 4.9 5.3 5.0 5.2 5.3 5.1 5.1 5.2 5.3 5.2 5.4 5.4 5.6 5.8 5.9 5.9 6.3 6.4 6.7 6.4 6.2 6.2 5.9
Wind_Speed
11 10 11 9 6 5 5 5 4 4 4 4 5 5 5 4 3 6 9 10 13 15 18 8 8 7 4 4 3 3 4 4 4 3 2 4 5 5 4 8 8 7 6
8 6 4 7 6 5 5 5 5 6 5 6 6 6 5 6 6 7 8 8 8 10 15 26 23 5 6 5 4 6 4 5 4 5 4 4 5 5 4 4 4 9 9
7 7 7 7 6 5 6 5 5 6 6 6 3 4 4 3 3 5 7 6 7 14 17 20 30 14 7 4 4 5 4 3 4 3 4 2 3 2 2 3 3 3 8
12 14 14 14 13 8 6 5 4 5 3 1 5 4 3 3 4 4 5 8 6 9 15 10 16 16 7 6 5 7 6 5 4 3 3 3 2 3 2 3 4 3 4
15 17 19 18 11 7 5 6 7 5 5 5 2 4 4 5 3 4 5 3 1 2 9 10 10 11 13 10 5 6 5 5 4 4 3 3 4 3 5 3 4 3 4
11 9 9 14 17 16 5 4 5 5 5 4 6 5 4 4 8 6 2 3 3 2 5 4 6 9 8 9 9 9 9 7 7 4 5 6 7 5 4 4 4 3 3
11 4 11 9 4 4 1 3 3 5 4 6 6 6 4 5 9 7 3 4 4 3 5 5 7 5 7 6 7 9 8 13 15 8 9 9 7 10 6 5 5 4 4
7 3 3 4 5 3 3 2 4 4 5 4 5 5 5 4 7 10 9 6 5 5 5 6 7 8 8 6 6 6 6 6 6 7 10 12 10 6 11 9 9 5 2
1 5 5 5 5 5 5 4 1 2 3 4 4 6 6 7 9 9 5 6 6 7 6 7 6 7 12 4 4 6 7 7 4 9 11 10 9 11 9 6 4 5 3
2 3 4 4 5 5 2 2 2 2 4 4 5 5 7 6 9 12 5 0 2 4 7 7 8 8 10 8 5 3 6 6 7 7 5 6 8 7 12 10 5 7 3
3 3 4 5 4 3 1 1 2 3 4 4 5 5 6 5 7 10 6 3 3 4 4 5 5 7 7 6 6 4 5 5 10 7 6 4 4 4 4 9 9 8 4
5 6 6 6 5 5 5 4 3 2 3 4 3 5 5 6 7 7 10 5 5 3 5 5 6 10 9 8 6 9 5 6 5 4 4 4 4 4 5 5 8 6 6
6 6 6 5 4 3 4 5 3 5 4 5 3 5 5 4 5 11 12 11 8 4 4 7 14 13 13 9 11 10 6 4 4 3 4 6 4 4 2 4 3 3 3
5 5 5 6 7 6 5 5 5 5 6 6 6 6 6 4 5 5 5 5 7 6 6 6 8 11 13 8 7 6 4 4 4 4 4 3 3 2 4 4 5 4 4
5 5 5 5 6 6 6 5 5 5 3 5 5 4 7 8 6 7 8 7 6 5 8 3 3 3 4 5 5 5 4 4 4 4 4 4 4 3 5 4 4 4 5
5 4 4 4 4 4 4 6 7 8 12 10 11 7 6 9 14 13 13 12 5 6 2 3 4 4 5 5 5 6 6 6 5 4 5 4 4 4 6 5 5 7 8
3 5 4 5 5 6 8 8 8 8 11 12 11 13 10 11 14 14 12 10 5 3 4 4 5 6 6 6 5 5 7 7 4 4 4 6 6 6 5 6 7 7 8
3 5 4 4 4 4 5 6 6 6 8 8 8 7 10 13 12 12 9 6 5 3 4 6 7 7 6 6 7 6 6 6 5 5 5 6 7 6 5 6 7 9 9
4 4 4 4 4 5 6 5 6 7 7 8 7 6 7 12 11 10 3 3 7 8 7 7 7 7 8 7 7 7 7 7 7 6 6 7 7 6 5 6 7 10 10
5 8 6 4 4 4 5 6 5 6 6 5 5 6 8 7 6 7 6 6 6 6 7 9 10 8 8 9 9 7 7 7 7 6 7 7 7 7 6 5 5 8 9
4 5 8 4 5 4 4 6 5 6 6 6 6 6 10 7 9 9 7 7 7 7 8 9 8 9 8 9 8 9 8 8 8 7 6 7 7 7 7 6 7 8 9
4 5 5 4 4 5 4 4 4 5 7 7 6 7 12 7 8 8 9 8 7 8 7 8 8 9 9 8 9 8 7 8 7 6 6 5 5 5 5 4 5 6 8
5 5 5 4 4 6 5 4 4 4 6 6 6 7 7 8 7 8 9 8 8 8 7 8 5 7 8 7 6 5 6 6 4 3 4 4 4 4 4 4 5 6 6
5 6 6 5 4 5 5 6 5 7 6 5 6 6 7 7 8 8 8 8 8 8 7 7 7 10 9 8 7 6 5 5 4 4 6 6 7 7 7 8 8 8 8
5 5 5 5 6 6 6 5 5 5 5 5 6 6 7 7 7 8 8 8 7 7 8 8 6 9 10 12 12 12 11 10 6 7 5 7 10 9 8 7 10 9 7
5 5 6 4 5 5 5 5 4 4 5 5 6 7 6 7 7 6 7 7 6 6 7 6 7 10 12 8 9 14 15 13 8 8 6 6 8 10 9 12 15 11 10
Wind_Direction
195 199 194 192 184 166 189 208 197 141 151 124 90 81 76 74 70 73 82 60 43 17 346 297 271 262 262 233 211 191 191 167 205 278 213 185 189 191 214 202 215 205 240
198 181 140 114 128 134 130 131 131 119 122 128 142 130 120 112 127 127 112 115 93 42 10 355 299 266 262 251 226 220 206 195 190 224 222 203 203 205 193 210 218 213 226
123 118 104 97 104 102 117 141 173 170 177 160 144 136 148 158 195 149 155 165 159 93 47 353 316 314 275 253 225 237 238 195 204 200 233 212 193 150 199 232 213 213 225
96 90 83 63 50 34 21 356 325 326 347 82 95 56 342 289 277 313 329 324 343 100 114 229 259 280 284 285 257 239 233 225 193 198 204 189 172 209 172 193 235 207 227
105 106 104 90 60 340 340 322 330 342 326 331 68 82 296 297 317 346 343 38 109 235 145 194 244 272 295 282 270 262 241 234 202 202 212 185 187 184 205 192 206 184 236
71 80 97 108 144 235 288 331 328 327 346 5 22 51 50 305 323 287 251 274 257 221 243 246 250 264 265 270 287 269 245 250 239 200 228 219 217 205 171 184 160 160 239
97 70 82 96 154 146 143 39 354 331 346 10 5 11 7 313 316 326 267 276 270 251 267 279 295 282 280 284 275 277 278 243 235 226 233 231 230 204 184 178 186 177 200
79 89 80 134 135 125 94 51 344 348 348 325 328 326 300 272 299 309 323 322 317 303 291 274 267 282 283 289 307 299 286 281 248 231 237 249 233 197 196 207 202 176 87
96 118 122 125 106 88 57 40 350 312 305 320 310 325 327 311 309 310 342 327 320 308 292 280 272 278 279 270 279 292 308 300 285 258 257 255 236 210 190 127 166 160 190
132 96 79 80 74 67 62 322 270 291 279 311 309 308 293 309 309 328 4 264 304 304 307 296 266 259 282 259 246 289 303 285 314 317 284 258 240 223 186 189 194 195 139
143 103 66 49 37 63 30 317 316 315 311 325 334 319 314 313 317 326 350 341 298 299 309 306 308 298 302 256 258 254 256 309 300 292 279 270 250 223 199 212 203 197 167
31 30 21 19 15 16 16 341 317 320 330 334 324 301 297 304 297 295 299 263 286 254 284 295 294 300 287 220 223 250 264 286 292 303 290 274 259 229 216 206 204 195 206
39 25 19 11 8 354 358 345 351 354 351 331 310 296 298 294 298 293 301 299 288 238 254 262 280 281 272 260 238 228 255 269 294 290 290 282 240 260 216 161 164 171 168
36 17 359 2 354 355 350 345 358 355 345 330 321 312 310 308 305 304 304 312 302 294 292 290 283 282 273 261 299 264 222 209 210 230 244 261 260 242 224 192 183 181 167
23 5 356 359 349 345 342 337 333 301 249 298 286 281 306 305 294 287 293 296 299 304 315 297 322 322 308 298 285 269 268 233 227 238 229 250 251 228 228 194 193 182 208
8 342 328 329 311 309 325 327 298 272 293 298 292 267 292 263 286 298 305 313 316 287 274 293 298 286 279 279 279 286 284 270 244 223 222 228 238 234 231 206 204 194 209
291 307 302 322 312 324 325 323 318 318 285 291 295 302 300 273 305 311 321 323 292 260 279 275 269 275 280 280 262 255 264 269 252 227 233 236 233 238 213 223 215 203 207
289 314 339 313 297 297 296 294 299 298 303 307 304 291 299 300 303 312 321 306 309 233 271 275 281 279 269 267 272 267 265 265 264 247 245 246 240 233 236 232 222 214 202
267 266 267 278 278 284 294 290 289 289 289 283 295 300 277 288 295 301 285 266 287 293 290 284 280 279 280 274 269 270 263 266 258 258 253 249 240 230 235 244 230 222 194
270 271 271 275 286 289 298 294 286 289 301 297 294 295 319 323 305 297 273 261 268 271 291 292 292 279 274 280 279 271 267 264 260 251 248 249 246 227 219 224 243 237 222
269 281 272 291 287 282 288 302 302 299 294 294 292 296 299 300 300 294 289 299 289 291 286 277 283 281 279 281 274 272 267 265 260 253 246 248 247 236 227 212 225 242 227
244 257 258 256 268 268 263 272 277 289 296 296 288 285 280 285 287 290 293 291 292 286 281 287 289 285 279 274 276 270 263 259 260 258 250 250 254 246 240 227 224 227 230
234 244 248 255 246 261 271 256 258 259 278 274 279 289 296 294 293 295 294 296 298 298 295 289 312 314 315 321 322 311 295 283 268 266 280 282 277 270 245 245 232 236 212
244 246 244 255 254 251 256 270 267 256 257 265 279 285 292 297 300 300 304 300 299 298 303 316 315 305 306 310 303 298 286 288 306 305 293 279 279 282 276 266 262 240 230
245 251 250 259 258 250 254 251 262 267 264 279 288 290 291 296 296 302 310 313 311 314 318 315 307 309 309 308 300 296 293 294 292 284 273 252 253 254 252 255 257 252 237
237 244 257 254 263 261 254 263 286 279 277 286 295 294 294 299 297 307 314 318 321 318 313 308 305 308 309 304 307 313 303 291 285 253 250 253 248 245 233 233 240 244 234